#datetime,building,power
2023-11-05T00:00:00,pth,3.60
2023-11-05T00:02:00,pth,2.40
2023-11-05T00:03:00,pth,2.40
2023-11-05T00:05:00,pth,3.60
2023-11-05T00:06:00,pth,2.40
2023-11-05T00:08:00,pth,6.00
2023-11-05T00:10:00,pth,4.80
2023-11-05T00:11:00,pth,3.60
2023-11-05T00:13:00,pth,2.40
2023-11-05T00:15:00,pth,2.40
2023-11-05T00:17:00,pth,2.40
2023-11-05T00:19:00,pth,3.60
2023-11-05T00:20:00,pth,1.20
2023-11-05T00:21:00,pth,1.20
2023-11-05T00:23:00,pth,4.80
2023-11-05T00:25:00,pth,1.20
2023-11-05T00:26:00,pth,2.40
2023-11-05T00:28:00,pth,2.40
2023-11-05T00:29:00,pth,1.20
2023-11-05T00:31:00,pth,2.40
2023-11-05T00:33:00,pth,2.40
2023-11-05T00:35:00,pth,3.60
2023-11-05T00:38:00,pth,2.40
2023-11-05T00:40:00,pth,2.40
2023-11-05T00:41:00,pth,1.20
2023-11-05T00:43:00,pth,2.40
2023-11-05T00:45:00,pth,4.80
2023-11-05T00:47:00,pth,3.60
2023-11-05T00:49:00,pth,6.00
2023-11-05T00:51:00,pth,3.60
2023-11-05T00:52:00,pth,1.20
2023-11-05T00:53:00,pth,3.60
2023-11-05T00:56:00,pth,2.40
2023-11-05T00:58:00,pth,2.40
2023-11-05T00:59:00,pth,2.40
2023-11-05T01:02:00,pth,2.40
2023-11-05T01:04:00,pth,1.20
2023-11-05T01:05:00,pth,2.40
2023-11-05T01:07:00,pth,2.40
2023-11-05T01:09:00,pth,2.40
2023-11-05T01:10:00,pth,1.20
2023-11-05T01:12:00,pth,2.40
2023-11-05T01:13:00,pth,1.20
2023-11-05T01:15:00,pth,2.40
2023-11-05T01:16:00,pth,1.20
2023-11-05T01:18:00,pth,1.20
2023-11-05T01:19:00,pth,1.20
2023-11-05T01:21:00,pth,3.60
2023-11-05T01:22:00,pth,1.20
2023-11-05T01:24:00,pth,4.80
2023-11-05T01:26:00,pth,4.80
2023-11-05T01:28:00,pth,6.00
2023-11-05T01:29:00,pth,2.40
2023-11-05T01:31:00,pth,6.00
2023-11-05T01:33:00,pth,8.40
2023-11-05T01:34:00,pth,3.60
2023-11-05T01:35:00,pth,2.40
2023-11-05T01:37:00,pth,3.60
2023-11-05T01:38:00,pth,2.40
2023-11-05T01:40:00,pth,4.80
2023-11-05T01:42:00,pth,2.40
2023-11-05T01:43:00,pth,2.40
2023-11-05T01:45:00,pth,2.40
2023-11-05T01:46:00,pth,2.40
2023-11-05T01:48:00,pth,1.20
2023-11-05T01:50:00,pth,3.60
2023-11-05T01:52:00,pth,3.60
2023-11-05T01:55:00,pth,3.60
2023-11-05T01:57:00,pth,3.60
2023-11-05T01:58:00,pth,4.80
2023-11-05T02:02:00,pth,3.60
2023-11-05T02:04:00,pth,2.40
2023-11-05T02:06:00,pth,3.60
2023-11-05T02:08:00,pth,7.20
2023-11-05T02:10:00,pth,6.00
2023-11-05T02:13:00,pth,3.60
2023-11-05T02:15:00,pth,2.40
2023-11-05T02:18:00,pth,3.60
2023-11-05T02:20:00,pth,2.40
2023-11-05T02:22:00,pth,3.60
2023-11-05T02:24:00,pth,2.40
2023-11-05T02:26:00,pth,2.40
2023-11-05T02:28:00,pth,3.60
2023-11-05T02:30:00,pth,2.40
2023-11-05T02:32:00,pth,2.40
2023-11-05T02:34:00,pth,2.40
2023-11-05T02:36:00,pth,2.40
2023-11-05T02:37:00,pth,2.40
2023-11-05T02:39:00,pth,2.40
2023-11-05T02:40:00,pth,2.40
2023-11-05T02:42:00,pth,3.60
2023-11-05T02:43:00,pth,2.40
2023-11-05T02:45:00,pth,4.80
2023-11-05T02:46:00,pth,1.20
2023-11-05T02:48:00,pth,2.40
2023-11-05T02:50:00,pth,2.40
2023-11-05T02:51:00,pth,1.20
2023-11-05T02:53:00,pth,2.40
2023-11-05T02:54:00,pth,1.20
2023-11-05T02:56:00,pth,2.40
2023-11-05T02:57:00,pth,1.20
2023-11-05T02:59:00,pth,2.40
2023-11-05T03:00:00,pth,1.20
2023-11-05T03:02:00,pth,2.40
2023-11-05T03:03:00,pth,2.40
2023-11-05T03:06:00,pth,3.60
2023-11-05T03:08:00,pth,2.40
2023-11-05T03:09:00,pth,2.40
2023-11-05T03:11:00,pth,1.20
2023-11-05T03:13:00,pth,2.40
2023-11-05T03:15:00,pth,7.20
2023-11-05T03:18:00,pth,4.80
2023-11-05T03:19:00,pth,2.40
2023-11-05T03:21:00,pth,2.40
2023-11-05T03:23:00,pth,2.40
2023-11-05T03:25:00,pth,2.40
2023-11-05T03:26:00,pth,1.20
2023-11-05T03:27:00,pth,2.40
2023-11-05T03:29:00,pth,1.20
2023-11-05T03:30:00,pth,1.20
2023-11-05T03:32:00,pth,2.40
2023-11-05T03:33:00,pth,1.20
2023-11-05T03:35:00,pth,2.40
2023-11-05T03:37:00,pth,2.40
2023-11-05T03:39:00,pth,2.40
2023-11-05T03:41:00,pth,2.40
2023-11-05T03:43:00,pth,2.40
2023-11-05T03:45:00,pth,2.40
2023-11-05T03:47:00,pth,3.60
2023-11-05T03:48:00,pth,2.40
2023-11-05T03:50:00,pth,4.80
2023-11-05T03:51:00,pth,3.60
2023-11-05T03:53:00,pth,1.20
2023-11-05T03:55:00,pth,2.40
2023-11-05T03:57:00,pth,3.60
2023-11-05T04:00:00,pth,1.20
2023-11-05T04:02:00,pth,2.40
2023-11-05T04:03:00,pth,2.40
2023-11-05T04:05:00,pth,1.20
2023-11-05T04:06:00,pth,1.20
2023-11-05T04:08:00,pth,2.40
2023-11-05T04:10:00,pth,1.20
2023-11-05T04:11:00,pth,1.20
2023-11-05T04:13:00,pth,2.40
2023-11-05T04:15:00,pth,2.40
2023-11-05T04:16:00,pth,1.20
2023-11-05T04:18:00,pth,2.40
2023-11-05T04:20:00,pth,4.80
2023-11-05T04:21:00,pth,1.20
2023-11-05T04:23:00,pth,4.80
2023-11-05T04:25:00,pth,3.60
2023-11-05T04:27:00,pth,2.40
2023-11-05T04:28:00,pth,1.20
2023-11-05T04:30:00,pth,2.40
2023-11-05T04:31:00,pth,1.20
2023-11-05T04:32:00,pth,1.20
2023-11-05T04:34:00,pth,1.20
2023-11-05T04:35:00,pth,1.20
2023-11-05T04:37:00,pth,2.40
2023-11-05T04:38:00,pth,2.40
2023-11-05T04:40:00,pth,1.20
2023-11-05T04:42:00,pth,2.40
2023-11-05T04:43:00,pth,1.20
2023-11-05T04:44:00,pth,2.40
2023-11-05T04:47:00,pth,2.40
2023-11-05T04:48:00,pth,1.20
2023-11-05T04:50:00,pth,3.60
2023-11-05T04:53:00,pth,3.60
2023-11-05T04:55:00,pth,4.80
2023-11-05T04:56:00,pth,3.60
2023-11-05T04:59:00,pth,3.60
2023-11-05T05:01:00,pth,2.40
2023-11-05T05:02:00,pth,2.40
2023-11-05T05:05:00,pth,2.40
2023-11-05T05:07:00,pth,2.40
2023-11-05T05:10:00,pth,2.40
2023-11-05T05:11:00,pth,1.20
2023-11-05T05:13:00,pth,2.40
2023-11-05T05:14:00,pth,2.40
2023-11-05T05:17:00,pth,2.40
2023-11-05T05:19:00,pth,1.20
2023-11-05T05:20:00,pth,1.20
2023-11-05T05:21:00,pth,1.20
2023-11-05T05:22:00,pth,1.20
2023-11-05T05:24:00,pth,3.60
2023-11-05T05:26:00,pth,3.60
2023-11-05T05:27:00,pth,2.40
2023-11-05T05:29:00,pth,3.60
2023-11-05T05:31:00,pth,3.60
2023-11-05T05:32:00,pth,1.20
2023-11-05T05:34:00,pth,1.20
2023-11-05T05:36:00,pth,2.40
2023-11-05T05:38:00,pth,1.20
2023-11-05T05:40:00,pth,2.40
2023-11-05T05:42:00,pth,2.40
2023-11-05T05:43:00,pth,1.20
2023-11-05T05:45:00,pth,2.40
2023-11-05T05:46:00,pth,1.20
2023-11-05T05:48:00,pth,1.20
2023-11-05T05:49:00,pth,2.40
2023-11-05T05:52:00,pth,1.20
2023-11-05T05:53:00,pth,1.20
2023-11-05T05:55:00,pth,2.40
2023-11-05T05:57:00,pth,3.60
2023-11-05T05:59:00,pth,3.60
2023-11-05T06:01:00,pth,4.80
2023-11-05T06:03:00,pth,2.40
2023-11-05T06:04:00,pth,1.20
2023-11-05T06:06:00,pth,2.40
2023-11-05T06:07:00,pth,2.40
2023-11-05T06:09:00,pth,1.20
2023-11-05T06:12:00,pth,2.40
2023-11-05T06:13:00,pth,1.20
2023-11-05T06:15:00,pth,2.40
2023-11-05T06:17:00,pth,2.40
2023-11-05T06:19:00,pth,2.40
2023-11-05T06:22:00,pth,2.40
2023-11-05T06:24:00,pth,2.40
2023-11-05T06:25:00,pth,2.40
2023-11-05T06:28:00,pth,4.80
2023-11-05T06:29:00,pth,2.40
2023-11-05T06:31:00,pth,6.00
2023-11-05T06:34:00,pth,3.60
2023-11-05T06:35:00,pth,1.20
2023-11-05T06:37:00,pth,1.20
2023-11-05T06:39:00,pth,2.40
2023-11-05T06:41:00,pth,2.40
2023-11-05T06:43:00,pth,2.40
2023-11-05T06:45:00,pth,1.20
2023-11-05T06:47:00,pth,2.40
2023-11-05T06:48:00,pth,1.20
2023-11-05T06:49:00,pth,2.40
2023-11-05T06:52:00,pth,2.40
2023-11-05T06:53:00,pth,1.20
2023-11-05T06:54:00,pth,1.20
2023-11-05T06:55:00,pth,2.40
2023-11-05T06:57:00,pth,1.20
2023-11-05T06:58:00,pth,1.20
2023-11-05T07:00:00,pth,4.80
2023-11-05T07:01:00,pth,2.40
2023-11-05T07:03:00,pth,3.60
2023-11-05T07:05:00,pth,3.60
2023-11-05T07:06:00,pth,1.20
2023-11-05T07:07:00,pth,2.40
2023-11-05T07:10:00,pth,2.40
2023-11-05T07:12:00,pth,2.40
2023-11-05T07:14:00,pth,2.40
2023-11-05T07:16:00,pth,2.40
2023-11-05T07:17:00,pth,1.20
2023-11-05T07:19:00,pth,2.40
2023-11-05T07:20:00,pth,1.20
2023-11-05T07:22:00,pth,3.60
2023-11-05T07:24:00,pth,2.40
2023-11-05T07:25:00,pth,1.20
2023-11-05T07:26:00,pth,1.20
2023-11-05T07:28:00,pth,2.40
2023-11-05T07:29:00,pth,1.20
2023-11-05T07:31:00,pth,4.80
2023-11-05T07:33:00,pth,3.60
2023-11-05T07:35:00,pth,4.80
2023-11-05T07:37:00,pth,2.40
2023-11-05T07:38:00,pth,1.20
2023-11-05T07:40:00,pth,2.40
2023-11-05T07:42:00,pth,2.40
2023-11-05T07:44:00,pth,2.40
2023-11-05T07:46:00,pth,2.40
2023-11-05T07:47:00,pth,1.20
2023-11-05T07:48:00,pth,2.40
2023-11-05T07:50:00,pth,1.20
2023-11-05T07:52:00,pth,2.40
2023-11-05T07:54:00,pth,2.40
2023-11-05T07:57:00,pth,3.60
2023-11-05T07:58:00,pth,1.20
2023-11-05T08:00:00,pth,4.80
2023-11-05T08:02:00,pth,2.40
2023-11-05T08:04:00,pth,3.60
2023-11-05T08:05:00,pth,1.20
2023-11-05T08:06:00,pth,2.40
2023-11-05T08:08:00,pth,1.20
2023-11-05T08:10:00,pth,1.20
2023-11-05T08:11:00,pth,1.20
2023-11-05T08:12:00,pth,1.20
2023-11-05T08:14:00,pth,1.20
2023-11-05T08:16:00,pth,1.20
2023-11-05T08:18:00,pth,1.20
2023-11-05T08:20:00,pth,2.40
2023-11-05T08:22:00,pth,2.40
2023-11-05T08:23:00,pth,1.20
2023-11-05T08:24:00,pth,2.40
2023-11-05T08:27:00,pth,3.60
2023-11-05T08:28:00,pth,1.20
2023-11-05T08:30:00,pth,6.00
2023-11-05T08:33:00,pth,3.60
2023-11-05T08:34:00,pth,2.40
2023-11-05T08:36:00,pth,3.60
2023-11-05T08:38:00,pth,1.20
2023-11-05T08:39:00,pth,1.20
2023-11-05T08:41:00,pth,2.40
2023-11-05T08:43:00,pth,2.40
2023-11-05T08:45:00,pth,1.20
2023-11-05T08:47:00,pth,2.40
2023-11-05T08:48:00,pth,1.20
2023-11-05T08:50:00,pth,2.40
2023-11-05T08:52:00,pth,2.40
2023-11-05T08:53:00,pth,1.20
2023-11-05T08:55:00,pth,1.20
2023-11-05T08:57:00,pth,2.40
2023-11-05T08:58:00,pth,1.20
2023-11-05T08:59:00,pth,4.80
2023-11-05T09:02:00,pth,6.00
2023-11-05T09:03:00,pth,2.40
2023-11-05T09:05:00,pth,8.40
2023-11-05T09:08:00,pth,3.60
2023-11-05T09:09:00,pth,2.40
2023-11-05T09:11:00,pth,2.40
2023-11-05T09:13:00,pth,2.40
2023-11-05T09:16:00,pth,4.80
2023-11-05T09:17:00,pth,3.60
2023-11-05T09:20:00,pth,2.40
2023-11-05T09:22:00,pth,2.40
2023-11-05T09:23:00,pth,1.20
2023-11-05T09:25:00,pth,1.20
2023-11-05T09:26:00,pth,1.20
2023-11-05T09:28:00,pth,2.40
2023-11-05T09:30:00,pth,1.20
2023-11-05T09:32:00,pth,2.40
2023-11-05T09:34:00,pth,2.40
2023-11-05T09:36:00,pth,4.80
2023-11-05T09:37:00,pth,2.40
2023-11-05T09:39:00,pth,3.60
2023-11-05T09:41:00,pth,2.40
2023-11-05T09:43:00,pth,2.40
2023-11-05T09:46:00,pth,9.60
2023-11-05T09:48:00,pth,12.00
2023-11-05T09:50:00,pth,13.20
2023-11-05T09:52:00,pth,13.20
2023-11-05T09:53:00,pth,6.00
2023-11-05T09:55:00,pth,14.40
2023-11-05T09:57:00,pth,14.40
2023-11-05T09:58:00,pth,14.40
2023-11-05T10:00:00,pth,7.20
2023-11-05T10:01:00,pth,7.20
2023-11-05T10:02:00,pth,7.20
2023-11-05T10:03:00,pth,7.20
2023-11-05T10:04:00,pth,14.40
2023-11-05T10:07:00,pth,14.40
2023-11-05T10:09:00,pth,15.60
2023-11-05T10:10:00,pth,7.20
2023-11-05T10:12:00,pth,14.40
2023-11-05T10:14:00,pth,14.40
2023-11-05T10:16:00,pth,16.80
2023-11-05T10:18:00,pth,1.20
2023-11-05T10:20:00,pth,10.80
2023-11-05T10:21:00,pth,7.20
2023-11-05T10:22:00,pth,6.00
2023-11-05T10:24:00,pth,1.20
2023-11-05T10:25:00,pth,3.60
2023-11-05T10:26:00,pth,7.20
2023-11-05T10:28:00,pth,9.60
2023-11-05T10:30:00,pth,4.80
2023-11-05T10:31:00,pth,4.80
2023-11-05T10:32:00,pth,8.40
2023-11-05T10:33:00,pth,6.00
2023-11-05T10:34:00,pth,7.20
2023-11-05T10:36:00,pth,3.60
2023-11-05T10:37:00,pth,4.80
2023-11-05T10:39:00,pth,15.60
2023-11-05T10:40:00,pth,4.80
2023-11-05T10:43:00,pth,3.60
2023-11-05T10:45:00,pth,2.40
2023-11-05T10:46:00,pth,1.20
2023-11-05T10:48:00,pth,2.40
2023-11-05T10:49:00,pth,1.20
2023-11-05T10:51:00,pth,2.40
2023-11-05T10:52:00,pth,2.40
2023-11-05T10:55:00,pth,3.60
2023-11-05T10:57:00,pth,2.40
2023-11-05T10:58:00,pth,2.40
2023-11-05T11:00:00,pth,2.40
2023-11-05T11:01:00,pth,1.20
2023-11-05T11:03:00,pth,4.80
2023-11-05T11:05:00,pth,3.60
2023-11-05T11:07:00,pth,3.60
2023-11-05T11:09:00,pth,2.40
2023-11-05T11:11:00,pth,1.20
2023-11-05T11:13:00,pth,3.60
2023-11-05T11:15:00,pth,2.40
2023-11-05T11:16:00,pth,1.20
2023-11-05T11:18:00,pth,2.40
2023-11-05T11:20:00,pth,2.40
2023-11-05T11:21:00,pth,4.80
2023-11-05T11:22:00,pth,7.20
2023-11-05T11:24:00,pth,13.20
2023-11-05T11:25:00,pth,7.20
2023-11-05T11:26:00,pth,7.20
2023-11-05T11:28:00,pth,15.60
2023-11-05T11:29:00,pth,7.20
2023-11-05T11:31:00,pth,7.20
2023-11-05T11:32:00,pth,7.20
2023-11-05T11:34:00,pth,15.60
2023-11-05T11:36:00,pth,10.80
2023-11-05T11:38:00,pth,10.80
2023-11-05T11:39:00,pth,7.20
2023-11-05T11:41:00,pth,12.00
2023-11-05T11:43:00,pth,7.20
2023-11-05T11:45:00,pth,13.20
2023-11-05T11:46:00,pth,4.80
2023-11-05T11:48:00,pth,6.00
2023-11-05T11:50:00,pth,13.20
2023-11-05T11:51:00,pth,6.00
2023-11-05T11:53:00,pth,4.80
2023-11-05T11:55:00,pth,14.40
2023-11-05T11:56:00,pth,7.20
2023-11-05T11:58:00,pth,6.00
2023-11-05T11:59:00,pth,7.20
2023-11-05T12:01:00,pth,15.60
2023-11-05T12:03:00,pth,4.80
2023-11-05T12:04:00,pth,8.40
2023-11-05T12:06:00,pth,14.40
2023-11-05T12:08:00,pth,2.40
2023-11-05T12:09:00,pth,13.20
2023-11-05T12:12:00,pth,7.20
2023-11-05T12:14:00,pth,9.60
2023-11-05T12:15:00,pth,9.60
2023-11-05T12:18:00,pth,6.00
2023-11-05T12:20:00,pth,10.80
2023-11-05T12:21:00,pth,3.60
2023-11-05T12:23:00,pth,1.20
2023-11-05T12:24:00,pth,2.40
2023-11-05T12:25:00,pth,1.20
2023-11-05T12:27:00,pth,1.20
2023-11-05T12:29:00,pth,2.40
2023-11-05T12:32:00,pth,2.40
2023-11-05T12:33:00,pth,1.20
2023-11-05T12:35:00,pth,1.20
2023-11-05T12:37:00,pth,2.40
2023-11-05T12:39:00,pth,1.20
2023-11-05T12:41:00,pth,2.40
2023-11-05T12:42:00,pth,1.20
2023-11-05T12:44:00,pth,1.20
2023-11-05T12:46:00,pth,2.40
2023-11-05T12:47:00,pth,1.20
2023-11-05T12:48:00,pth,1.20
2023-11-05T12:50:00,pth,2.40
2023-11-05T12:51:00,pth,1.20
2023-11-05T12:53:00,pth,1.20
2023-11-05T12:54:00,pth,1.20
2023-11-05T12:56:00,pth,2.40
2023-11-05T12:58:00,pth,2.40
2023-11-05T13:00:00,pth,1.20
2023-11-05T13:02:00,pth,2.40
2023-11-05T13:04:00,pth,1.20
2023-11-05T13:06:00,pth,2.40
2023-11-05T13:08:00,pth,1.20
2023-11-05T13:10:00,pth,1.20
2023-11-05T13:11:00,pth,1.20
2023-11-05T13:13:00,pth,1.20
2023-11-05T13:15:00,pth,3.60
2023-11-05T13:16:00,pth,2.40
2023-11-05T13:18:00,pth,2.40
2023-11-05T13:20:00,pth,2.40
2023-11-05T13:21:00,pth,2.40
2023-11-05T13:22:00,pth,1.20
2023-11-05T13:23:00,pth,1.20
2023-11-05T13:25:00,pth,3.60
2023-11-05T13:26:00,pth,2.40
2023-11-05T13:29:00,pth,2.40
2023-11-05T13:31:00,pth,1.20
2023-11-05T13:32:00,pth,2.40
2023-11-05T13:35:00,pth,1.20
2023-11-05T13:36:00,pth,1.20
2023-11-05T13:38:00,pth,2.40
2023-11-05T13:40:00,pth,1.20
2023-11-05T13:41:00,pth,1.20
2023-11-05T13:44:00,pth,2.40
2023-11-05T13:46:00,pth,4.80
2023-11-05T13:48:00,pth,4.80
2023-11-05T13:50:00,pth,3.60
2023-11-05T13:52:00,pth,2.40
2023-11-05T13:54:00,pth,3.60
2023-11-05T13:56:00,pth,2.40
2023-11-05T13:58:00,pth,2.40
2023-11-05T14:00:00,pth,2.40
2023-11-05T14:01:00,pth,1.20
2023-11-05T14:03:00,pth,2.40
2023-11-05T14:05:00,pth,3.60
2023-11-05T14:07:00,pth,2.40
2023-11-05T14:08:00,pth,1.20
2023-11-05T14:10:00,pth,1.20
2023-11-05T14:12:00,pth,4.80
2023-11-05T14:13:00,pth,1.20
2023-11-05T14:15:00,pth,2.40
2023-11-05T14:17:00,pth,4.80
2023-11-05T14:19:00,pth,9.60
2023-11-05T14:21:00,pth,13.20
2023-11-05T14:23:00,pth,15.60
2023-11-05T14:24:00,pth,7.20
2023-11-05T14:26:00,pth,14.40
2023-11-05T14:28:00,pth,15.60
2023-11-05T14:29:00,pth,7.20
2023-11-05T14:31:00,pth,15.60
2023-11-05T14:33:00,pth,14.40
2023-11-05T14:35:00,pth,14.40
2023-11-05T14:36:00,pth,7.20
2023-11-05T14:38:00,pth,15.60
2023-11-05T14:40:00,pth,16.80
2023-11-05T14:41:00,pth,7.20
2023-11-05T14:43:00,pth,14.40
2023-11-05T14:45:00,pth,15.60
2023-11-05T14:47:00,pth,13.20
2023-11-05T14:48:00,pth,7.20
2023-11-05T14:50:00,pth,12.00
2023-11-05T14:51:00,pth,7.20
2023-11-05T14:53:00,pth,12.00
2023-11-05T14:54:00,pth,6.00
2023-11-05T14:55:00,pth,13.20
2023-11-05T14:58:00,pth,13.20
2023-11-05T15:00:00,pth,14.40
2023-11-05T15:01:00,pth,14.40
2023-11-05T15:04:00,pth,10.80
2023-11-05T15:05:00,pth,2.40
2023-11-05T15:07:00,pth,16.80
2023-11-05T15:10:00,pth,13.20
2023-11-05T15:11:00,pth,2.40
2023-11-05T15:13:00,pth,7.20
2023-11-05T15:15:00,pth,13.20
2023-11-05T15:16:00,pth,4.80
2023-11-05T15:18:00,pth,1.20
2023-11-05T15:19:00,pth,1.20
2023-11-05T15:22:00,pth,1.20
2023-11-05T15:23:00,pth,1.20
2023-11-05T15:25:00,pth,1.20
2023-11-05T15:27:00,pth,2.40
2023-11-05T15:29:00,pth,1.20
2023-11-05T15:30:00,pth,1.20
2023-11-05T15:31:00,pth,2.40
2023-11-05T15:34:00,pth,1.20
2023-11-05T15:36:00,pth,2.40
2023-11-05T15:37:00,pth,2.40
2023-11-05T15:40:00,pth,2.40
2023-11-05T15:41:00,pth,1.20
2023-11-05T15:44:00,pth,2.40
2023-11-05T15:46:00,pth,1.20
2023-11-05T15:48:00,pth,2.40
2023-11-05T15:49:00,pth,1.20
2023-11-05T15:51:00,pth,2.40
2023-11-05T15:53:00,pth,2.40
2023-11-05T15:55:00,pth,2.40
2023-11-05T15:57:00,pth,1.20
2023-11-05T15:58:00,pth,1.20
2023-11-05T15:59:00,pth,1.20
2023-11-05T16:02:00,pth,2.40
2023-11-05T16:05:00,pth,2.40
2023-11-05T16:07:00,pth,1.20
2023-11-05T16:08:00,pth,1.20
2023-11-05T16:09:00,pth,1.20
2023-11-05T16:11:00,pth,1.20
2023-11-05T16:12:00,pth,1.20
2023-11-05T16:13:00,pth,1.20
2023-11-05T16:15:00,pth,1.20
2023-11-05T16:16:00,pth,1.20
2023-11-05T16:18:00,pth,1.20
2023-11-05T16:19:00,pth,1.20
2023-11-05T16:21:00,pth,2.40
2023-11-05T16:23:00,pth,3.60
2023-11-05T16:24:00,pth,1.20
2023-11-05T16:26:00,pth,2.40
2023-11-05T16:28:00,pth,2.40
2023-11-05T16:30:00,pth,1.20
2023-11-05T16:32:00,pth,1.20
2023-11-05T16:33:00,pth,1.20
2023-11-05T16:34:00,pth,1.20
2023-11-05T16:36:00,pth,1.20
2023-11-05T16:37:00,pth,1.20
2023-11-05T16:39:00,pth,2.40
2023-11-05T16:41:00,pth,3.60
2023-11-05T16:42:00,pth,2.40
2023-11-05T16:43:00,pth,2.40
2023-11-05T16:45:00,pth,3.60
2023-11-05T16:46:00,pth,1.20
2023-11-05T16:48:00,pth,2.40
2023-11-05T16:49:00,pth,1.20
2023-11-05T16:50:00,pth,1.20
2023-11-05T16:52:00,pth,1.20
2023-11-05T16:54:00,pth,3.60
2023-11-05T16:57:00,pth,2.40
2023-11-05T16:58:00,pth,1.20
2023-11-05T17:00:00,pth,2.40
2023-11-05T17:02:00,pth,2.40
2023-11-05T17:03:00,pth,1.20
2023-11-05T17:05:00,pth,2.40
2023-11-05T17:06:00,pth,2.40
2023-11-05T17:08:00,pth,1.20
2023-11-05T17:10:00,pth,2.40
2023-11-05T17:11:00,pth,1.20
2023-11-05T17:12:00,pth,3.60
2023-11-05T17:15:00,pth,2.40
2023-11-05T17:16:00,pth,1.20
2023-11-05T17:18:00,pth,2.40
2023-11-05T17:20:00,pth,3.60
2023-11-05T17:21:00,pth,1.20
2023-11-05T17:23:00,pth,2.40
2023-11-05T17:24:00,pth,1.20
2023-11-05T17:26:00,pth,3.60
2023-11-05T17:28:00,pth,2.40
2023-11-05T17:29:00,pth,2.40
2023-11-05T17:31:00,pth,4.80
2023-11-05T17:32:00,pth,2.40
2023-11-05T17:33:00,pth,2.40
2023-11-05T17:35:00,pth,4.80
2023-11-05T17:36:00,pth,1.20
2023-11-05T17:38:00,pth,3.60
2023-11-05T17:39:00,pth,1.20
2023-11-05T17:41:00,pth,3.60
2023-11-05T17:43:00,pth,3.60
2023-11-05T17:45:00,pth,2.40
2023-11-05T17:47:00,pth,3.60
2023-11-05T17:48:00,pth,1.20
2023-11-05T17:50:00,pth,2.40
2023-11-05T17:52:00,pth,9.60
2023-11-05T17:54:00,pth,14.40
2023-11-05T17:55:00,pth,6.00
2023-11-05T17:57:00,pth,15.60
2023-11-05T17:59:00,pth,15.60
2023-11-05T18:01:00,pth,15.60
2023-11-05T18:03:00,pth,15.60
2023-11-05T18:04:00,pth,7.20
2023-11-05T18:06:00,pth,15.60
2023-11-05T18:08:00,pth,9.60
2023-11-05T18:09:00,pth,7.20
2023-11-05T18:11:00,pth,14.40
2023-11-05T18:12:00,pth,7.20
2023-11-05T18:13:00,pth,3.60
2023-11-05T18:15:00,pth,13.20
2023-11-05T18:16:00,pth,7.20
2023-11-05T18:18:00,pth,9.60
2023-11-05T18:20:00,pth,12.00
2023-11-05T18:21:00,pth,4.80
2023-11-05T18:23:00,pth,14.40
2023-11-05T18:25:00,pth,9.60
2023-11-05T18:26:00,pth,7.20
2023-11-05T18:28:00,pth,9.60
2023-11-05T18:29:00,pth,7.20
2023-11-05T18:31:00,pth,9.60
2023-11-05T18:32:00,pth,7.20
2023-11-05T18:33:00,pth,7.20
2023-11-05T18:35:00,pth,8.40
2023-11-05T18:37:00,pth,13.20
2023-11-05T18:38:00,pth,3.60
2023-11-05T18:40:00,pth,14.40
2023-11-05T18:42:00,pth,9.60
2023-11-05T18:44:00,pth,10.80
2023-11-05T18:46:00,pth,13.20
2023-11-05T18:48:00,pth,9.60
2023-11-05T18:50:00,pth,12.00
2023-11-05T18:51:00,pth,2.40
2023-11-05T18:53:00,pth,4.80
2023-11-05T18:55:00,pth,1.20
2023-11-05T18:57:00,pth,2.40
2023-11-05T18:58:00,pth,1.20
2023-11-05T18:59:00,pth,1.20
2023-11-05T19:01:00,pth,1.20
2023-11-05T19:02:00,pth,1.20
2023-11-05T19:03:00,pth,1.20
2023-11-05T19:05:00,pth,2.40
2023-11-05T19:07:00,pth,2.40
2023-11-05T19:09:00,pth,2.40
2023-11-05T19:10:00,pth,1.20
2023-11-05T19:11:00,pth,3.60
2023-11-05T19:13:00,pth,1.20
2023-11-05T19:15:00,pth,2.40
2023-11-05T19:17:00,pth,3.60
2023-11-05T19:20:00,pth,2.40
2023-11-05T19:21:00,pth,1.20
2023-11-05T19:23:00,pth,2.40
2023-11-05T19:25:00,pth,2.40
2023-11-05T19:26:00,pth,1.20
2023-11-05T19:28:00,pth,2.40
2023-11-05T19:30:00,pth,2.40
2023-11-05T19:32:00,pth,2.40
2023-11-05T19:34:00,pth,2.40
2023-11-05T19:35:00,pth,2.40
2023-11-05T19:37:00,pth,3.60
2023-11-05T19:39:00,pth,2.40
2023-11-05T19:40:00,pth,2.40
2023-11-05T19:42:00,pth,3.60
2023-11-05T19:43:00,pth,1.20
2023-11-05T19:45:00,pth,4.80
2023-11-05T19:46:00,pth,2.40
2023-11-05T19:47:00,pth,2.40
2023-11-05T19:49:00,pth,2.40
2023-11-05T19:50:00,pth,1.20
2023-11-05T19:52:00,pth,3.60
2023-11-05T19:53:00,pth,1.20
2023-11-05T19:55:00,pth,2.40
2023-11-05T19:56:00,pth,1.20
2023-11-05T19:58:00,pth,2.40
2023-11-05T19:59:00,pth,1.20
2023-11-05T20:01:00,pth,2.40
2023-11-05T20:02:00,pth,1.20
2023-11-05T20:03:00,pth,1.20
2023-11-05T20:05:00,pth,2.40
2023-11-05T20:07:00,pth,2.40
2023-11-05T20:08:00,pth,1.20
2023-11-05T20:10:00,pth,2.40
2023-11-05T20:12:00,pth,3.60
2023-11-05T20:14:00,pth,3.60
2023-11-05T20:16:00,pth,2.40
2023-11-05T20:18:00,pth,3.60
2023-11-05T20:20:00,pth,3.60
2023-11-05T20:22:00,pth,4.80
2023-11-05T20:24:00,pth,4.80
2023-11-05T20:25:00,pth,2.40
2023-11-05T20:27:00,pth,2.40
2023-11-05T20:28:00,pth,1.20
2023-11-05T20:30:00,pth,2.40
2023-11-05T20:32:00,pth,2.40
2023-11-05T20:33:00,pth,1.20
2023-11-05T20:34:00,pth,2.40
2023-11-05T20:36:00,pth,1.20
2023-11-05T20:38:00,pth,2.40
2023-11-05T20:39:00,pth,1.20
2023-11-05T20:40:00,pth,2.40
2023-11-05T20:42:00,pth,1.20
2023-11-05T20:44:00,pth,3.60
2023-11-05T20:46:00,pth,3.60
2023-11-05T20:48:00,pth,1.20
2023-11-05T20:50:00,pth,2.40
2023-11-05T20:51:00,pth,1.20
2023-11-05T20:52:00,pth,4.80
2023-11-05T20:54:00,pth,2.40
2023-11-05T20:56:00,pth,4.80
2023-11-05T20:58:00,pth,4.80
2023-11-05T21:00:00,pth,3.60
2023-11-05T21:01:00,pth,1.20
2023-11-05T21:03:00,pth,2.40
2023-11-05T21:04:00,pth,1.20
2023-11-05T21:06:00,pth,2.40
2023-11-05T21:08:00,pth,2.40
2023-11-05T21:09:00,pth,1.20
2023-11-05T21:10:00,pth,2.40
2023-11-05T21:13:00,pth,3.60
2023-11-05T21:14:00,pth,1.20
2023-11-05T21:16:00,pth,3.60
2023-11-05T21:17:00,pth,1.20
2023-11-05T21:18:00,pth,1.20
2023-11-05T21:20:00,pth,3.60
2023-11-05T21:22:00,pth,3.60
2023-11-05T21:23:00,pth,2.40
2023-11-05T21:24:00,pth,3.60
2023-11-05T21:26:00,pth,4.80
2023-11-05T21:27:00,pth,3.60
2023-11-05T21:28:00,pth,2.40
2023-11-05T21:30:00,pth,3.60
2023-11-05T21:32:00,pth,2.40
2023-11-05T21:34:00,pth,2.40
2023-11-05T21:36:00,pth,2.40
2023-11-05T21:37:00,pth,1.20
2023-11-05T21:39:00,pth,2.40
2023-11-05T21:40:00,pth,1.20
2023-11-05T21:42:00,pth,2.40
2023-11-05T21:43:00,pth,2.40
2023-11-05T21:44:00,pth,1.20
2023-11-05T21:46:00,pth,2.40
2023-11-05T21:48:00,pth,2.40
2023-11-05T21:50:00,pth,2.40
2023-11-05T21:51:00,pth,1.20
2023-11-05T21:53:00,pth,3.60
2023-11-05T21:54:00,pth,2.40
2023-11-05T21:55:00,pth,2.40
2023-11-05T21:57:00,pth,4.80
2023-11-05T21:58:00,pth,2.40
2023-11-05T22:00:00,pth,4.80
2023-11-05T22:01:00,pth,1.20
2023-11-05T22:03:00,pth,2.40
2023-11-05T22:05:00,pth,2.40
2023-11-05T22:07:00,pth,3.60
2023-11-05T22:08:00,pth,1.20
2023-11-05T22:10:00,pth,3.60
2023-11-05T22:12:00,pth,3.60
2023-11-05T22:13:00,pth,1.20
2023-11-05T22:15:00,pth,3.60
2023-11-05T22:17:00,pth,2.40
2023-11-05T22:19:00,pth,2.40
2023-11-05T22:21:00,pth,7.20
2023-11-05T22:24:00,pth,6.00
2023-11-05T22:26:00,pth,4.80
2023-11-05T22:27:00,pth,4.80
2023-11-05T22:29:00,pth,2.40
2023-11-05T22:31:00,pth,2.40
2023-11-05T22:32:00,pth,2.40
2023-11-05T22:33:00,pth,2.40
2023-11-05T22:35:00,pth,2.40
2023-11-05T22:37:00,pth,3.60
2023-11-05T22:39:00,pth,4.80
2023-11-05T22:41:00,pth,1.20
2023-11-05T22:43:00,pth,3.60
2023-11-05T22:45:00,pth,2.40
2023-11-05T22:47:00,pth,4.80
2023-11-05T22:48:00,pth,2.40
2023-11-05T22:50:00,pth,4.80
2023-11-05T22:51:00,pth,2.40
2023-11-05T22:53:00,pth,6.00
2023-11-05T22:55:00,pth,3.60
2023-11-05T22:57:00,pth,3.60
2023-11-05T22:59:00,pth,2.40
2023-11-05T23:01:00,pth,2.40
2023-11-05T23:02:00,pth,1.20
2023-11-05T23:03:00,pth,2.40
2023-11-05T23:05:00,pth,2.40
2023-11-05T23:06:00,pth,1.20
2023-11-05T23:08:00,pth,3.60
2023-11-05T23:09:00,pth,2.40
2023-11-05T23:12:00,pth,4.80
2023-11-05T23:13:00,pth,2.40
2023-11-05T23:14:00,pth,3.60
2023-11-05T23:15:00,pth,4.80
2023-11-05T23:18:00,pth,7.20
2023-11-05T23:20:00,pth,7.20
2023-11-05T23:21:00,pth,2.40
2023-11-05T23:23:00,pth,3.60
2023-11-05T23:25:00,pth,3.60
2023-11-05T23:27:00,pth,6.00
2023-11-05T23:30:00,pth,3.60